« Back
NWS Peachtree City, Ga » Text Product » GA Regional Weather Roundup


Printer-friendly Version
Current Version              Previous Versions:   1  2  3  4  5  6  7  8  9  

Regional Weather Roundup

046
ASUS42 KFFC 240403
RWRGA
WEATHER ROUNDUP FOR GEORGIA
NATIONAL WEATHER SERVICE PEACHTREE CITY GA
1200 AM EDT TUE MAY 24 2016

NOTE: "FAIR" INDICATES FEW OR NO CLOUDS BELOW 12,000 FEET WITH NO
SIGNIFICANT WEATHER AND/OR OBSTRUCTIONS TO VISIBILITY.

* = USE WITH CAUTION. THE STATIONS MARKED WITH AN ASTERISK MAY NOT
REPORT WEATHER SUCH AS PRECIPITATION, FOG, OR THUNDER AND ARE NOT
QUALITY CONTROLLED BY NWS.

THE REMARK "TC" DENOTES TEMPERATURE READING IN DEGREES CELSIUS.

GAZ001>058-240500-
NORTH GEORGIA

CITY           SKY/WX    TMP DP  RH WIND       PRES   REMARKS
ATLANTA        PTCLDY    69  52  54 CALM      30.03S
ATHENS         CLEAR     62  53  72 E6        30.05R
CHAMBLEE       PTCLDY    62  52  69 CALM      30.03S
PEACHTREE CITY MOCLDY    60  56  86 CALM      30.04S
ROME           CLEAR     62  56  80 CALM      30.02R
WEST ATLANTA   PTCLDY    63  56  78 CALM      30.03S
GAINESVILLE    CLEAR     65  50  58 E9        30.08R
CARTERSVILLE   MOCLDY    58  54  86 CALM      30.03S


CITY           SKY/WX    TMP DP  RH WIND       PRES   REMARKS
DALTON*        CLEAR     59  55  88 CALM      30.03S
MARIETTA       PTCLDY    63  54  72 CALM      30.03S
CANTON*        CLEAR     59  48  67 CALM      30.06S
BLAIRSVILLE*     N/A    N/A N/A N/A MISG      30.09S
$$

GAZ059>098-102>109-240500-
CENTRAL GEORGIA

CITY           SKY/WX    TMP DP  RH WIND       PRES   REMARKS
AUGUSTA-BUSH   CLEAR     59  56  89 CALM      30.05R
AUGUSTA-DANIEL CLEAR     68  52  56 E5        30.06R
COLUMBUS       CLEAR     68  55  63 CALM      30.03R
MACON          CLEAR     63  60  90 CALM      30.03R
ROBINS AFB     PTCLDY    64  60  87 SE3       30.02R


CITY           SKY/WX    TMP DP  RH WIND       PRES   REMARKS
LAGRANGE*      PTCLDY    61  61 100 CALM      30.04S
SYLVANIA*      CLEAR     68  57  68 E3        30.06R
MILLEDGEVILLE* CLEAR     64  59  82 CALM      30.03S
$$

GAZ099>101-110>166-240500-
SOUTH GEORGIA

CITY           SKY/WX    TMP DP  RH WIND       PRES   REMARKS
SAVANNAH       CLEAR     65  60  84 N3        30.05R
VALDOSTA       CLEAR     63  59  87 CALM      30.03R
ALMA           CLEAR     60  58  92 CALM      30.04R
ST SIMONS      CLEAR     73  58  59 SE7       30.04R
FT STEWART     CLEAR     64  59  83 CALM      30.02S
ALBANY         CLEAR     63  55  75 W3        30.05R
HUNTER AFB     CLEAR     66  61  83 CALM      30.02S HAZE
MOODY AFB      CLEAR     64  58  80 CALM      30.03R
BRUNSWICK      CLEAR     66  63  88 CALM      30.05R


CITY           SKY/WX    TMP DP  RH WIND       PRES   REMARKS
BAINBRIDGE*    CLEAR     68  61  77 CALM      30.03R
MOULTRIE*      CLEAR     64  59  82 CALM      30.05R
VIDALIA*       CLEAR     68  55  64 SE3       30.04S
WAYCROSS*      CLEAR     65  60  81 CALM      30.04R
DOUGLAS*       CLEAR     68  59  73 S3        30.05S
$$




USA.gov is the U.S. government's official web portal to all federal, state and local government web resources and services.